Probability
14 13 13 12 12 13 14 15 14 10 6 4 4 4 2 2 4 6 6 5 4 3 5 6 6 6 7 8 8 7 7 7 7 6 5 3 1 0 0 0 0 0 0
13 13 12 10 9 10 13 13 12 8 5 3 2 2 1 1 3 5 5 4 2 3 5 6 6 6 7 7 7 7 7 8 7 5 3 2 0 0 0 0 0 0 0
11 11 10 8 7 9 10 10 9 6 3 1 1 1 0 0 1 3 3 2 1 2 5 6 6 6 6 6 6 6 7 7 7 4 2 1 0 0 0 0 0 0 0
8 8 8 7 8 8 8 8 7 4 1 1 0 0 0 0 0 1 1 0 0 1 3 6 6 6 6 6 6 6 6 6 6 3 1 0 0 0 0 0 0 0 0
6 5 5 6 7 8 6 6 5 2 0 1 0 0 0 0 0 1 0 0 0 1 3 5 6 6 5 4 4 4 4 4 3 2 0 0 0 0 0 0 0 0 0
4 4 4 5 6 7 5 4 3 1 0 0 0 0 0 0 0 0 0 1 1 2 4 6 6 5 3 1 1 1 1 1 1 0 0 0 0 0 0 0 0 0 0
4 3 3 4 5 4 3 1 1 0 0 0 0 1 1 0 0 0 0 1 2 3 4 6 7 5 2 0 0 0 0 0 0 0 0 0 0 0 0 0 0 0 0
4 3 2 1 2 1 0 0 0 0 0 0 1 2 2 1 0 0 0 2 3 4 5 7 9 7 3 0 0 0 0 0 0 0 0 0 0 0 0 0 0 0 0
3 2 1 0 0 0 0 0 0 0 0 1 3 3 3 2 1 0 1 2 4 5 6 6 7 6 2 0 0 0 1 1 0 0 0 0 0 0 0 0 0 0 0
2 1 0 0 0 0 0 0 0 0 0 1 2 3 3 2 1 0 1 2 3 5 6 5 3 2 1 0 0 0 1 1 1 1 1 0 0 0 0 0 0 0 0
1 1 0 0 0 0 0 0 0 0 0 0 1 1 2 1 0 0 1 1 2 3 3 3 2 0 0 0 0 0 1 1 1 2 2 1 0 0 0 0 0 0 0
1 1 1 0 0 0 0 0 0 0 0 0 0 0 0 0 0 0 0 0 0 1 1 1 1 0 0 0 0 0 0 0 1 2 2 1 0 0 0 0 0 0 0
2 2 1 0 0 0 0 0 0 0 0 0 0 0 0 0 1 0 0 0 0 0 0 0 0 0 0 0 0 0 0 0 0 1 1 0 1 1 1 1 0 0 0
1 1 0 0 0 0 0 0 0 0 0 0 0 0 0 0 0 0 0 0 0 0 0 0 0 0 0 0 0 0 0 0 0 0 0 0 1 2 2 1 1 0 0
0 0 0 0 0 0 0 0 0 0 0 0 0 1 0 0 0 0 0 0 0 0 0 0 0 0 0 0 0 0 0 0 0 0 0 0 1 1 1 1 1 0 0
0 0 0 0 0 0 0 0 0 0 0 0 0 0 0 0 0 0 0 0 0 0 0 0 0 0 0 0 0 0 0 0 0 0 0 0 0 0 0 0 1 0 0
0 0 0 0 0 0 0 0 0 0 0 0 0 0 0 0 0 0 0 0 0 0 0 0 0 0 0 0 0 0 0 0 0 0 0 0 0 0 0 0 0 0 0
0 0 0 0 0 0 0 0 1 1 1 1 0 0 0 0 0 0 0 0 0 0 0 0 0 0 0 0 0 0 0 0 0 0 0 0 0 0 0 0 0 0 0
0 0 0 0 0 0 0 0 1 2 1 1 0 0 0 0 0 0 0 0 0 0 0 0 0 0 0 0 0 0 0 0 0 0 0 0 0 0 0 0 0 0 0
0 0 0 0 0 0 0 0 1 1 1 0 0 0 0 0 0 0 0 0 0 0 0 0 0 0 0 0 0 0 0 0 0 0 0 0 0 0 0 0 0 0 0
0 0 0 0 0 0 0 0 0 0 0 0 0 0 0 0 0 0 0 0 0 0 0 0 0 0 0 0 0 0 0 0 0 0 0 0 0 0 0 0 0 0 0
0 0 0 0 0 0 0 0 0 0 0 0 0 0 0 0 0 0 0 0 0 0 0 0 0 0 0 0 0 0 0 0 0 0 0 0 0 0 0 0 0 0 0
0 0 0 0 0 0 0 0 0 0 0 0 0 0 0 0 0 0 0 0 0 1 1 1 0 0 0 0 0 0 0 0 0 0 0 0 0 0 0 0 0 0 0
0 0 0 0 0 0 0 0 0 0 0 0 0 0 0 0 0 0 0 0 1 2 2 2 1 0 0 0 0 0 0 0 0 0 0 0 0 0 0 0 0 0 0
0 0 0 0 0 0 0 0 0 0 0 0 0 0 0 0 0 0 0 0 1 2 2 2 1 0 0 0 0 0 0 0 0 0 0 0 0 0 0 0 0 0 0
0 0 0 0 0 0 0 0 0 0 0 0 0 0 0 0 0 0 0 0 0 1 1 1 1 0 0 0 0 0 0 0 0 0 0 0 0 0 0 0 0 0 0
Wind_Speed
4 4 3 3 3 3 2 2 2 2 2 3 3 3 4 4 3 3 4 4 5 4 5 5 5 6 6 5 5 5 5 5 7 7 5 4 5 6 4 5 6 6 5
4 4 4 3 3 3 3 2 2 2 3 3 3 3 4 4 4 4 5 5 5 5 5 6 6 5 6 6 5 6 5 5 6 8 6 5 6 6 5 6 6 5 5
5 5 4 4 3 3 3 3 3 3 3 3 3 3 4 4 4 4 5 5 5 6 6 6 6 6 7 5 6 6 6 5 5 6 7 5 5 4 5 5 6 5 6
4 4 4 4 3 3 3 3 3 2 3 3 3 4 4 4 4 4 5 5 6 6 6 7 6 6 7 7 6 7 6 6 6 6 6 5 4 4 4 4 5 4 5
4 4 4 3 3 3 3 3 3 3 3 3 3 4 4 4 3 4 5 6 6 6 6 7 7 6 7 7 7 6 6 6 6 5 5 5 4 4 4 4 5 4 4
3 3 3 3 3 3 3 3 3 3 3 3 3 4 4 3 2 4 7 7 7 7 7 7 7 6 6 8 9 9 8 8 7 6 6 6 6 6 4 5 5 5 5
4 3 3 3 3 3 3 3 2 3 3 3 3 4 4 2 2 4 6 7 7 7 7 7 7 5 5 6 6 8 9 11 11 8 8 8 8 6 5 7 6 6 6
4 3 3 2 2 2 2 2 2 2 2 3 3 4 4 2 2 4 5 7 7 7 7 7 7 7 5 5 7 7 7 6 7 8 8 8 7 6 6 7 7 7 7
4 3 2 2 2 2 2 2 2 2 3 3 3 4 4 3 2 3 5 5 5 6 6 6 6 6 3 3 6 7 7 6 5 7 8 8 8 9 8 6 7 7 6
3 3 2 2 2 2 2 2 2 2 3 4 4 4 4 4 1 2 4 5 5 5 5 5 4 4 3 3 5 6 7 6 6 5 5 7 8 9 10 9 8 7 6
2 3 2 2 2 2 1 1 2 3 3 4 4 4 3 3 2 2 3 4 5 5 5 5 3 0 3 5 6 6 7 7 7 6 6 5 5 5 6 7 7 7 7
3 3 2 2 2 1 1 1 2 3 3 3 3 3 2 1 1 1 3 5 6 5 5 5 4 2 4 6 5 5 7 7 6 5 5 4 4 4 4 5 6 7 7
3 3 3 2 2 1 1 1 2 2 2 3 3 3 3 2 0 2 3 4 6 5 5 5 6 6 6 5 6 7 7 5 5 5 5 5 4 4 4 4 5 6 8
3 3 3 2 2 1 2 1 2 2 2 3 4 4 4 3 3 3 2 2 4 4 5 4 6 8 6 5 5 4 4 4 4 5 5 5 5 4 4 4 4 4 5
3 3 2 2 1 1 1 1 2 2 3 4 5 4 5 5 6 7 6 6 6 5 6 5 4 4 3 3 4 4 4 3 3 4 4 5 4 4 4 3 4 4 5
3 3 2 2 1 1 1 1 1 1 1 2 3 5 4 3 5 6 6 6 7 7 5 4 4 5 5 5 5 5 5 4 4 5 5 5 5 5 5 4 4 5 5
3 2 2 1 1 2 2 2 2 1 4 4 3 3 4 5 5 6 6 6 6 5 3 4 4 5 5 5 5 5 5 5 5 5 5 5 5 5 5 5 5 4 5
3 2 2 2 2 2 2 2 3 3 2 1 2 4 3 3 4 6 6 5 3 2 3 4 4 5 5 5 6 6 6 6 5 5 5 5 5 6 6 6 5 6 6
3 2 2 1 2 2 2 2 2 3 3 3 2 1 4 4 4 4 4 3 4 4 4 4 4 5 5 5 5 6 6 6 6 6 6 6 6 6 6 6 6 5 6
3 2 2 2 2 2 2 2 2 3 3 3 4 4 3 3 3 3 2 3 4 4 5 5 5 5 5 5 5 5 5 5 5 5 6 6 6 6 7 7 6 6 5
3 3 4 3 2 2 2 2 2 3 3 4 3 3 5 4 4 4 4 4 4 5 5 5 5 5 5 4 5 5 6 6 5 6 6 6 6 6 6 6 6 6 6
2 2 2 2 1 2 2 3 3 3 3 4 3 2 1 3 4 4 4 4 4 4 5 5 5 5 5 5 5 6 6 6 6 7 7 7 6 6 6 6 6 6 6
3 3 3 2 2 2 3 3 3 3 3 4 4 3 3 3 3 4 4 4 4 4 4 4 5 5 5 5 5 6 6 7 7 8 8 8 7 7 6 6 7 7 6
3 3 3 3 3 3 3 3 3 3 3 3 3 4 3 3 3 4 4 3 3 4 4 4 5 7 9 7 5 5 6 7 9 8 9 8 8 8 7 6 6 7 6
4 3 3 3 3 3 3 3 3 4 3 3 3 3 3 3 3 3 3 3 4 4 5 5 5 6 8 9 8 8 7 7 7 8 8 7 8 8 8 8 6 6 6
4 3 3 3 3 3 3 3 3 3 3 2 3 3 3 3 3 3 3 3 4 4 4 4 6 7 8 7 8 8 6 7 8 9 8 7 7 7 8 6 7 6 6
Wind_Direction
169 171 175 183 185 195 208 217 227 241 248 249 250 254 257 258 259 265 276 273 271 273 274 275 280 289 288 283 276 273 270 270 278 288 288 288 278 277 269 262 257 251 241
172 174 183 191 196 208 215 228 235 245 249 246 250 255 259 262 262 267 273 277 277 275 278 282 283 283 284 287 287 279 277 273 271 284 290 287 281 274 273 269 262 258 259
178 182 187 198 204 215 226 234 242 243 248 250 250 258 266 271 268 268 272 276 278 280 284 284 282 283 283 286 284 282 278 272 268 276 282 285 283 281 282 273 269 263 257
184 189 193 207 218 228 238 243 246 244 249 257 264 271 272 274 275 274 275 277 279 282 284 283 282 282 280 282 279 280 284 284 274 271 278 276 276 276 274 274 273 262 260
187 196 206 215 223 232 243 251 250 246 252 257 267 274 271 269 285 297 285 278 282 283 282 281 282 281 286 281 285 291 289 282 280 277 281 282 280 281 276 277 278 280 272
191 202 215 225 229 237 244 249 246 251 263 269 272 274 273 289 345 302 285 280 281 281 283 284 280 261 261 253 256 263 269 270 277 281 280 280 279 277 279 274 275 275 273
194 204 216 228 234 242 250 250 251 259 269 280 280 277 281 301 288 280 280 275 273 279 283 284 286 289 272 277 260 240 243 240 246 265 274 276 279 278 275 270 269 272 279
193 198 204 219 230 240 246 251 257 264 277 287 287 293 290 290 248 275 287 270 274 278 280 283 285 288 292 297 291 285 278 262 247 242 255 265 270 273 270 268 271 269 263
188 191 198 215 226 239 248 256 265 272 284 286 279 285 284 284 251 270 284 285 282 287 290 288 285 283 296 293 284 286 287 288 267 245 250 260 272 269 266 263 257 257 264
185 186 193 213 233 245 251 263 278 280 279 286 290 286 284 289 272 263 281 289 298 298 293 287 275 269 288 281 283 289 292 297 301 289 249 243 248 246 236 241 253 258 265
177 176 183 205 225 235 245 266 285 288 294 290 289 282 282 294 277 242 263 287 299 301 305 307 335 49 277 279 275 278 286 294 291 284 272 263 259 249 241 237 241 251 259
177 176 184 207 226 198 206 265 280 283 278 281 285 291 296 286 288 263 239 255 289 294 301 315 342 359 304 286 277 279 281 280 275 275 271 266 265 264 261 257 254 255 261
177 181 189 196 207 206 220 238 260 265 296 315 321 324 332 343 356 210 234 253 264 276 301 317 310 298 296 278 255 260 262 262 273 279 280 280 279 281 275 262 252 250 255
170 175 184 190 201 195 245 265 290 315 325 331 335 337 342 342 350 357 317 274 246 255 283 283 255 256 259 276 280 260 259 277 287 290 293 293 290 281 272 271 266 257 256
171 178 191 196 193 218 247 301 307 345 353 322 335 337 339 340 9 2 337 330 330 335 319 294 296 301 299 301 303 306 299 291 285 293 294 292 290 286 280 272 264 261 266
180 189 200 203 200 245 259 243 144 258 158 230 267 299 333 338 326 325 323 315 304 298 293 298 313 318 321 320 319 318 313 315 315 305 299 296 295 292 290 276 264 261 264
194 197 226 237 232 263 286 302 299 221 209 223 230 243 264 301 308 309 307 297 283 274 280 310 323 327 324 320 319 319 319 321 316 310 310 310 306 299 296 292 286 279 272
200 189 231 243 260 277 293 295 298 310 308 296 189 199 229 260 285 295 296 296 293 264 305 318 324 326 326 327 328 325 321 320 319 316 313 310 306 300 294 290 287 289 287
203 201 228 259 271 282 291 293 311 328 323 321 331 162 209 229 239 261 266 301 327 332 329 330 327 325 327 327 325 323 322 323 327 323 318 316 310 304 301 300 299 299 289
196 186 242 261 262 272 283 305 326 328 322 325 330 339 335 315 315 331 324 323 323 328 330 330 327 327 325 326 326 323 325 328 327 321 320 318 315 310 308 306 304 302 295
199 176 208 247 264 291 308 309 316 314 319 318 326 349 331 313 321 330 334 335 331 333 335 333 329 325 323 323 320 319 320 321 324 321 318 315 312 310 309 307 308 306 304
217 208 225 255 272 288 297 293 292 298 307 311 319 326 290 299 324 332 339 344 344 342 339 333 329 330 331 329 327 322 320 321 324 322 319 316 313 309 306 305 308 311 310
222 223 225 235 252 251 264 277 291 299 307 316 321 331 334 335 339 340 345 350 345 342 338 336 332 333 337 336 332 329 330 330 327 322 318 312 311 309 307 309 311 309 309
218 225 229 232 245 258 272 282 288 294 307 319 325 326 327 331 334 342 346 351 348 347 346 344 339 339 339 336 333 342 357 345 327 316 315 311 311 312 313 313 311 312 311
221 227 233 236 248 260 270 280 292 303 316 324 320 316 324 333 334 337 348 352 346 346 344 342 341 342 343 343 350 1 6 344 329 322 312 307 312 315 315 315 317 320 320
222 228 239 241 245 260 271 284 300 310 312 307 307 315 323 331 338 346 354 352 344 344 342 343 346 348 346 344 2 1 347 335 328 317 307 309 316 323 324 322 323 322 322